Location: Alsip
(41.6689°N, 87.7387°W)
Time: 15:17:06
(UTC+00:00)

Cosmos 1437 Rocket - Pass Details

Date: 14 July 2020
Orbit: 506 x 562 km, 81.2° (Epoch: 13 August)

Event Time Altitude Azimuth Distance (km) Brightness Sun altitude
Rises 06:53:05 0° 1° (N) 2,731 7.6 -25.4°
Reaches altitude 10° 06:55:32 10° 14° (NNE) 1,823 6.5 -25.3°
Maximum altitude 06:58:58 27° 73° (ENE) 1,064 4.5 -25.1°
Enters shadow 06:59:36 26° 90° (E) 1,094 4.4 -25.1°
